Hourly Data Report for September 11, 2015

All times are specified in Local Standard Time (LST). Add 1 hour to adjust for Daylight Saving Time where and when it is observed.

TORONTO INTL A
ONTARIO

43°40'36.000" N
79°37'50.000" W
173.40 m
6158731
71624
YYZ

Download Data

Hourly Data (September 2015)
Hourly Data Report for September 11, 2015
Temp Definition
°C
Dew Point Temp Definition
°C
Rel Hum Definition
%
Wind Dir Definition
10's deg

Wind Spd Definition
km/h
Visibility Definition
km
Stn Press Definition
kPa
Hmdx Definition


Wind Chill Definition


Weather Definition


TIME
00:00 Legend Double Dagger 16.8 10.7 67 36 1 24.1 99.09     LegendNANA
01:00 Legend Double Dagger 17.2 10.4 64   0 24.1 99.06     Clear
02:00 Legend Double Dagger 15.1 9.9 71 2 7 24.1 99.01     LegendNANA
03:00 Legend Double Dagger 15.7 9.2 65 34 5 24.1 99.06     LegendNANA
04:00 Legend Double Dagger 14.7 9.3 70 32 4 24.1 99.08     Mostly Cloudy
05:00 Legend Double Dagger 15.2 9.4 68 1 5 24.1 99.06     LegendNANA
06:00 Legend Double Dagger 15.8 8.6 62 33 7 24.1 99.10     LegendNANA
07:00 Legend Double Dagger 16.5 8.5 59 33 8 24.1 99.13     Mostly Cloudy
08:00 Legend Double Dagger 18.0 10.2 60 36 10 24.1 99.16     LegendNANA
09:00 Legend Double Dagger 19.6 12.9 65 34 20 24.1 99.18     LegendNANA
10:00 Legend Double Dagger 20.2 13.5 65 35 19 24.1 99.16     Mostly Cloudy
11:00 Legend Double Dagger 19.5 14.0 70 4 10 24.1 99.18     LegendNANA
12:00 Legend Double Dagger 19.4 13.0 66 36 10 24.1 99.16     LegendNANA
13:00 Legend Double Dagger 21.7 13.2 58 34 8 24.1 99.12 25   Mostly Cloudy
14:00 Legend Double Dagger 22.5 12.9 54 27 9 24.1 99.07 25   LegendNANA
15:00 Legend Double Dagger 19.6 13.6 68 35 22 24.1 99.04     Rain Showers
16:00 Legend Double Dagger 20.9 10.5 51 1 23 24.1 99.03     Cloudy
17:00 Legend Double Dagger 19.2 10.8 58 36 25 24.1 99.07     LegendNANA
18:00 Legend Double Dagger 17.9 10.4 61 34 25 24.1 99.11     LegendNANA
19:00 Legend Double Dagger 16.3 10.5 68 34 22 24.1 99.17     Rain
20:00 Legend Double Dagger 15.5 10.9 74 35 20 24.1 99.24     Rain
21:00 Legend Double Dagger 14.7 11.0 78 35 22 24.1 99.22     Rain
22:00 Legend Double Dagger 14.3 11.1 81 36 19 24.1 99.19     Rain
23:00 Legend Double Dagger 13.8 11.0 83 1 19 24.1 99.20     Rain

Notes on Data Quality.

Legend

  • E = Estimated
  • M = Missing
  • NA = Not Available
  • ‡ = Partner data that is not subject to review by the National Climate Archives
Date modified: